Location: Ch�risy
(50.2331°N, 2.9131°E)
Time: 19:55:58
(UTC+00:00)

Cosmos 968 Rocket - Pass Details

Date: 17 January 2021
Orbit: 740 x 771 km, 74.0° (Epoch: 27 February)

Event Time Altitude Azimuth Distance (km) Brightness Sun altitude
Rises 17:37:42 0° 212° (SSW) 3,169 7.5 -12.5°
Reaches altitude 10° 17:40:04 10° 216° (SW) 2,248 6.7 -12.8°
Maximum altitude 17:45:07 63° 297° (WNW) 827 3.9 -13.6°
Drops below altitude 10° 17:50:12 10° 19° (NNE) 2,265 5.6 -14.4°
Enters shadow 17:51:12 - 21° (NNE) 2,649 5.9 -14.5°
